Theta_e
352 352 353 355 355 355 355 356 355 356 356 355 355 356 356 355 355 354 354 353 353 351 350 349 349 349 349 349 348 350 349 348 348 348 348 349 349 349 348 348 349 350 349 350 350 350 350 351 349 346 349 350 350 349 350 349 348 348 348 348 348 347 347 348 347 347 346 347 347 346 346 347 349 349 348 348 347 346 344 343 344 341 342 343 344
352 354 355 356 354 355 354 355 355 355 355 355 355 354 355 354 354 353 353 352 351 350 350 349 349 349 349 348 348 347 348 348 348 349 350 350 350 349 348 349 350 350 350 351 350 350 350 350 349 349 348 350 351 351 350 349 348 348 347 347 347 347 348 347 347 347 346 347 347 347 346 346 347 348 347 347 346 345 343 342 343 342 342 342 342
353 353 355 355 355 355 354 354 354 354 354 354 354 354 353 353 352 353 352 351 350 350 350 349 349 348 348 347 348 348 348 348 348 349 348 348 349 349 350 351 351 350 350 350 351 350 349 351 350 349 350 350 350 349 350 349 349 348 348 347 347 347 347 347 348 348 347 347 348 348 347 347 346 346 346 346 345 345 343 342 340 340 339 340 341
352 353 354 356 355 354 354 354 354 353 353 353 353 354 353 353 352 352 351 351 351 350 349 348 348 348 349 348 348 347 347 346 347 349 349 349 350 350 351 351 351 351 351 351 351 350 350 350 349 349 349 349 350 350 350 349 348 347 347 347 347 347 347 347 347 347 346 347 347 346 345 346 345 344 345 345 344 344 344 342 340 340 339 339 341
353 353 352 354 355 354 354 353 353 353 352 352 352 352 352 352 351 351 350 351 350 349 348 347 348 348 347 347 347 347 346 347 350 351 351 351 351 350 352 352 352 352 351 351 350 350 350 350 350 350 349 349 350 350 350 349 348 346 346 346 347 347 347 347 346 346 346 345 346 346 344 343 345 344 344 344 343 342 342 343 341 339 338 337 337
353 353 352 352 352 355 353 353 353 353 352 351 351 351 351 351 350 350 350 349 349 348 348 347 347 348 347 346 346 346 346 347 350 351 351 352 351 351 351 352 352 351 351 351 350 350 350 350 350 350 349 350 350 350 349 349 348 347 346 346 347 347 346 346 346 345 345 345 349 342 341 342 341 340 341 342 341 340 339 339 340 340 340 339 337
354 352 353 352 352 353 352 353 353 352 351 351 351 351 350 350 350 349 349 349 348 348 347 347 347 347 347 346 347 346 346 347 349 351 351 353 352 352 351 351 352 351 351 351 350 351 350 349 349 349 349 350 349 349 349 349 348 347 347 346 346 345 344 343 343 342 343 347 342 340 339 339 338 337 338 339 339 338 338 339 338 338 338 338 337
353 353 352 351 352 352 353 353 352 351 351 351 350 350 350 350 350 349 349 348 347 347 347 347 347 346 346 346 346 346 347 347 348 349 351 353 353 352 351 351 351 351 350 350 350 350 350 349 349 349 349 348 349 348 348 347 347 346 346 345 344 343 342 341 339 338 343 338 341 340 339 337 337 336 338 339 338 338 339 339 339 339 338 338 338
352 352 351 352 351 351 353 352 352 351 351 351 350 350 350 349 349 349 348 348 347 347 347 347 346 347 347 347 347 346 346 346 347 348 350 352 353 352 352 352 351 350 350 351 351 349 348 348 348 348 348 348 348 348 347 347 347 346 345 344 343 342 341 340 339 339 340 337 337 338 336 336 336 337 340 341 341 341 342 342 342 342 341 342 342
352 353 352 352 353 352 352 352 351 351 350 350 350 350 349 349 349 349 348 348 347 347 347 347 347 347 347 347 348 347 346 346 346 348 351 352 353 352 352 351 350 350 349 349 348 347 347 346 347 347 348 348 347 347 347 346 346 345 345 344 344 343 341 341 338 344 340 340 338 338 340 341 336 339 342 343 344 345 343 344 344 343 343 343 342
353 352 352 352 352 352 351 351 351 350 350 350 349 350 349 349 349 348 348 347 347 347 347 347 346 346 347 347 347 347 346 345 346 348 350 350 350 351 351 349 350 350 348 348 347 346 346 347 348 349 349 348 348 347 347 347 346 345 344 344 342 342 341 340 345 338 337 335 337 339 341 344 342 344 345 345 344 343 343 342 342 342 341 341 342
351 354 353 352 354 351 352 351 351 350 349 350 350 349 349 348 348 348 348 348 348 347 348 348 348 347 347 346 346 345 345 345 346 349 349 348 348 348 348 348 348 348 348 347 346 345 346 348 347 347 347 348 348 348 347 347 345 345 343 343 342 341 340 341 338 338 340 338 337 338 336 336 339 342 344 344 343 343 342 342 341 341 341 340 340
351 352 353 354 351 351 351 351 350 350 350 350 350 349 348 348 348 347 348 349 349 348 348 348 349 348 349 348 347 347 346 346 348 349 348 348 348 348 348 347 348 347 347 346 345 345 347 348 348 348 349 348 348 348 347 346 344 344 343 342 341 339 339 341 338 338 334 336 338 338 337 340 342 342 343 344 343 342 342 342 341 340 340 340 340
350 352 353 352 350 353 351 351 351 351 350 350 350 349 348 348 348 348 349 349 349 349 348 349 349 349 349 349 349 349 349 348 348 348 348 348 348 347 347 347 347 347 347 345 345 345 347 348 348 348 348 348 347 346 346 345 344 343 342 341 340 338 337 341 341 339 339 337 339 338 339 341 343 342 341 342 342 341 341 341 340 339 340 340 339
351 353 354 353 352 352 352 352 351 351 350 349 349 349 349 349 349 349 350 350 350 349 349 348 349 349 350 350 349 348 347 347 348 348 347 347 347 347 347 347 347 348 346 345 344 345 346 347 348 348 347 347 346 345 345 344 343 342 341 339 338 338 341 338 338 338 337 337 339 338 338 341 342 341 340 340 340 339 339 339 338 338 339 338 338
352 352 353 354 352 352 352 353 351 351 350 350 349 349 350 349 349 350 350 350 349 349 349 348 348 350 350 350 349 349 348 348 348 348 347 347 347 347 347 347 347 346 346 345 345 346 348 348 347 347 346 345 345 344 344 343 341 341 340 339 338 338 340 343 339 340 339 339 339 339 337 339 341 340 337 337 338 337 338 338 337 337 337 336 336
353 353 354 352 352 352 350 352 351 351 351 350 350 350 350 350 350 350 350 350 349 350 349 348 349 349 349 349 349 349 349 349 349 348 347 347 346 347 346 346 346 346 346 346 346 347 348 348 347 347 346 345 344 343 343 342 341 340 340 340 339 338 340 343 339 340 339 339 338 337 338 337 338 339 338 337 336 336 336 336 335 335 336 335 335
352 354 353 353 352 353 352 351 352 352 352 352 351 350 350 350 350 350 350 349 350 350 349 348 348 349 348 348 349 350 350 349 349 348 348 347 347 346 346 346 345 346 346 345 347 348 348 348 347 346 346 345 344 343 342 341 341 340 339 339 338 336 341 342 340 339 339 339 338 338 338 339 340 337 336 335 335 335 335 335 335 335 334 333 334
352 354 353 352 350 352 351 352 353 351 351 352 351 351 350 350 350 350 350 349 350 350 350 349 348 348 348 348 350 350 350 349 349 349 347 347 346 345 345 345 345 345 345 346 347 348 348 348 347 346 345 344 343 342 341 340 340 340 339 339 337 339 337 342 338 338 339 340 339 337 336 339 338 337 338 338 337 337 336 335 335 334 334 334 334
353 353 352 353 351 350 351 350 351 352 353 353 353 352 351 351 351 350 350 350 350 350 350 349 348 348 348 348 350 352 351 351 349 348 346 346 345 344 345 345 344 345 345 347 347 347 348 348 347 345 344 343 343 341 340 340 339 339 339 337 337 336 341 341 339 339 340 339 338 337 338 338 337 337 337 336 335 334 334 334 334 334 333 333 333
352 351 351 351 350 350 350 350 354 350 354 355 355 353 353 351 351 350 350 350 350 350 350 349 348 348 348 348 349 351 351 351 350 348 346 347 347 346 345 344 344 345 346 346 347 347 348 347 346 345 344 343 342 341 341 340 340 339 338 337 336 341 341 342 342 342 340 339 339 336 337 337 336 335 335 335 334 333 334 333 333 333 331 332 332
349 349 351 350 350 351 353 351 352 350 354 353 354 354 354 352 353 353 352 351 350 350 351 350 348 349 348 350 352 352 349 349 349 347 347 347 347 345 345 344 344 345 346 346 346 346 347 347 346 345 343 342 341 343 342 341 339 338 337 336 340 341 344 343 342 339 340 340 338 337 336 336 335 335 335 334 334 332 333 333 332 332 332 332 331
345 347 348 350 351 350 352 351 350 350 352 353 353 353 354 354 353 352 349 348 350 351 349 348 350 347 350 351 350 351 352 351 350 346 347 346 347 345 344 344 344 345 346 346 346 346 345 346 345 344 343 342 344 343 343 340 339 337 336 341 342 342 344 343 342 341 340 339 338 337 336 335 335 336 336 335 334 334 333 332 332 332 332 332 331
347 347 347 349 352 350 352 351 351 351 352 349 352 353 353 354 353 353 352 351 352 350 349 350 350 351 352 352 352 351 352 353 347 347 346 346 347 345 344 343 343 344 345 347 346 346 345 345 344 343 342 343 346 342 341 340 337 340 342 340 339 341 343 343 339 339 340 338 337 336 336 335 335 334 334 334 334 334 333 332 332 332 332 330 331
348 347 348 350 351 352 350 351 353 353 352 352 352 352 354 353 352 351 351 347 351 351 351 351 352 352 351 352 353 353 352 351 351 348 344 345 345 345 345 343 343 344 345 345 346 347 347 346 345 341 344 345 344 344 343 341 341 340 341 340 341 342 342 342 340 341 340 339 337 334 335 334 335 334 333 333 333 333 334 333 332 332 331 331 330
347 346 346 348 352 352 352 351 352 352 354 353 353 353 354 352 352 351 350 351 351 350 352 352 351 352 351 352 352 353 353 350 350 348 346 345 344 342 343 341 340 341 343 342 342 345 345 344 342 342 344 346 346 344 342 342 340 341 339 340 341 342 341 340 340 340 340 338 337 334 335 334 332 332 333 333 332 331 332 332 331 331 330 331 331
345 345 347 348 352 354 355 355 354 354 355 355 354 353 352 353 353 352 350 348 351 349 349 352 352 353 353 353 352 351 350 348 349 349 346 345 343 342 341 344 342 341 342 342 343 345 342 343 344 344 345 344 343 342 341 341 341 339 340 339 340 340 340 339 338 338 338 337 337 334 334 333 333 333 333 331 331 332 331 331 330 330 330 330 329
343 345 346 348 353 354 355 352 354 354 355 354 354 353 354 354 354 351 351 350 349 348 348 352 353 352 353 353 353 348 346 348 350 348 348 346 344 344 343 343 341 340 341 340 341 341 341 342 343 344 342 343 340 341 340 341 340 342 339 340 340 340 340 338 339 339 338 338 338 335 335 334 334 333 332 332 332 331 332 332 332 331 330 331 331
343 345 347 348 351 350 350 352 352 351 353 353 352 353 354 354 353 352 350 349 348 347 346 349 351 352 353 352 352 348 345 343 347 349 347 345 345 344 342 342 342 339 340 338 340 341 342 342 342 342 343 342 341 342 339 340 342 342 340 339 341 341 341 340 339 336 337 337 338 335 334 335 334 334 332 331 333 332 330 331 332 329 330 330 329
342 345 346 347 350 351 351 349 350 350 350 353 352 351 353 352 353 352 350 349 348 348 348 346 348 350 350 352 349 348 346 345 345 346 346 345 345 345 343 343 341 341 339 340 339 340 341 341 343 342 340 341 341 341 340 340 339 341 340 340 340 340 340 338 337 336 337 337 338 336 334 334 333 333 335 332 332 330 331 331 331 330 330 329 328
344 342 344 344 347 348 347 348 350 350 350 348 351 351 353 352 351 351 351 350 349 349 348 347 347 348 349 353 350 349 350 349 347 346 346 344 345 344 343 343 341 341 340 339 341 341 343 342 343 341 342 341 340 340 339 340 339 340 341 338 340 340 338 339 337 337 336 336 337 337 334 332 332 334 335 336 332 331 331 331 330 330 329 329 329
341 342 344 345 346 347 348 348 349 350 350 347 349 350 350 351 352 351 350 351 350 349 348 348 346 347 348 352 352 350 350 350 350 349 347 344 344 344 343 344 343 341 342 340 339 341 342 341 343 343 343 342 342 342 342 340 340 338 339 340 339 339 337 337 337 338 337 337 336 337 337 335 334 334 334 335 333 330 330 331 330 331 331 331 331
343 344 345 344 345 347 347 347 348 349 349 348 346 347 350 350 351 351 351 350 351 350 349 348 348 348 349 351 350 349 350 349 350 350 347 345 344 343 343 343 342 342 343 343 340 342 341 341 342 342 342 342 341 341 340 341 339 339 340 340 338 337 339 338 338 338 337 337 337 337 338 337 336 334 334 332 331 330 330 330 330 330 331 331 331
342 343 341 339 342 343 344 344 345 343 341 341 342 344 347 349 349 350 350 351 349 348 348 348 348 347 348 350 349 348 348 349 349 349 347 346 346 343 342 342 342 344 343 343 339 339 338 340 339 340 339 340 339 340 338 339 339 339 340 339 339 340 339 337 338 337 337 338 337 338 338 337 335 335 335 334 333 331 330 329 330 331 332 331 330
345 340 337 337 338 339 338 339 340 342 341 341 338 341 343 342 345 347 348 350 349 348 348 348 346 347 348 346 350 348 346 348 348 348 347 346 346 344 342 342 343 343 341 342 340 339 339 338 337 337 339 338 338 338 339 340 338 337 339 339 339 339 339 339 338 338 338 339 338 338 339 336 335 333 334 334 335 335 334 333 333 333 332 332 331
341 339 336 338 338 338 337 336 339 343 342 341 341 341 342 342 343 344 346 348 347 348 347 348 347 347 348 347 347 348 343 343 344 341 344 346 345 345 344 345 345 342 340 340 341 339 339 338 339 338 337 337 338 338 338 339 338 337 339 338 338 338 340 339 340 340 339 339 339 341 340 339 337 334 333 334 335 336 336 334 333 332 332 332 332
342 341 339 339 340 339 339 340 341 342 342 341 342 344 346 345 345 344 345 347 347 347 347 348 347 347 347 346 347 348 347 342 342 345 346 346 345 345 345 346 345 343 341 340 339 339 339 338 339 339 339 336 336 336 337 339 337 337 337 338 337 338 340 341 340 339 340 340 341 339 338 338 338 332 338 337 338 336 336 334 335 336 335 333 333
342 343 344 345 341 341 343 344 343 343 342 342 343 344 345 346 345 346 347 346 347 347 348 347 347 346 347 345 346 347 347 344 341 342 345 345 346 346 345 345 344 343 341 341 339 339 340 340 339 339 340 337 335 335 336 337 337 336 336 337 337 337 340 341 341 339 340 339 339 339 337 339 336 336 337 339 340 339 338 337 337 337 336 335 335
342 343 344 345 343 342 343 343 344 342 340 342 341 341 343 346 345 346 345 346 347 347 348 347 347 347 346 345 345 346 346 345 342 338 339 345 345 344 344 343 342 341 341 340 339 338 339 341 341 340 341 340 337 337 336 335 335 335 335 336 339 340 341 341 341 339 340 340 341 340 340 337 337 336 336 340 340 340 340 340 338 338 338 334 335
341 343 345 344 344 343 345 345 345 342 341 342 341 340 341 339 339 343 342 343 345 344 347 345 347 345 345 345 345 346 345 346 344 339 336 341 346 344 343 342 342 342 340 338 336 336 338 340 340 338 336 337 338 337 337 335 335 335 334 337 339 340 340 340 341 341 341 340 339 338 337 337 336 336 338 340 340 341 340 340 340 338 338 336 331
341 343 345 345 347 342 343 344 347 344 341 339 338 337 336 338 339 339 339 342 342 343 342 345 345 345 345 344 344 344 345 343 335 335 336 339 338 341 341 341 341 342 341 339 338 338 339 343 340 338 336 335 335 337 336 337 333 333 334 335 337 339 340 340 339 340 339 337 336 335 336 338 336 335 340 341 339 339 338 338 339 340 338 339 336
341 343 344 345 344 346 345 345 345 342 341 341 340 338 339 338 338 338 340 341 341 340 340 342 343 343 344 345 345 344 344 345 341 336 338 339 338 337 338 340 342 342 343 343 342 340 340 339 341 336 338 335 334 336 336 335 331 329 327 328 331 335 339 339 337 338 339 340 337 335 336 338 337 336 339 338 337 337 337 338 339 338 338 339 339
341 343 345 342 341 343 342 342 339 339 340 342 341 340 340 342 341 340 341 341 346 346 345 345 346 345 345 345 343 341 340 341 343 339 337 337 338 336 336 339 336 340 343 342 344 342 342 341 339 335 334 336 335 337 337 337 331 332 331 328 324 325 331 334 337 336 336 338 336 337 338 338 338 337 338 336 335 337 337 338 338 339 339 339 339
339 341 340 340 339 339 339 337 339 339 339 341 340 342 342 343 344 343 343 341 340 345 346 345 344 344 343 343 342 341 340 339 340 341 339 336 337 336 336 337 338 343 341 340 341 341 343 341 339 337 335 332 332 333 338 339 336 331 323 324 326 325 321 322 327 332 337 338 338 338 337 334 336 337 337 333 336 334 335 339 339 340 341 341 339
333 334 334 334 336 336 337 338 338 338 338 338 339 340 341 341 341 341 341 341 341 339 338 338 341 342 341 341 340 340 339 340 341 341 342 339 338 336 335 337 336 341 341 341 340 339 341 341 340 339 337 335 333 335 336 339 337 338 334 326 323 322 323 327 329 329 334 333 337 336 335 335 336 336 332 332 334 334 338 339 340 340 340 340 340
330 332 333 333 334 334 336 338 337 338 338 339 340 341 340 339 338 335 332 333 334 334 334 335 338 339 338 341 340 339 339 340 341 342 338 336 337 337 336 335 334 340 338 342 340 341 341 340 340 340 337 338 336 332 332 337 340 338 336 338 333 324 323 328 327 321 332 333 333 333 335 335 335 335 331 333 332 332 337 338 340 340 340 339 339
328 331 332 333 334 335 335 336 338 337 338 339 340 340 339 340 338 336 335 335 333 335 338 340 339 339 339 340 341 342 340 338 340 341 339 336 337 339 335 335 336 336 340 344 341 339 337 339 340 338 338 338 334 331 333 334 335 333 336 338 336 334 332 329 324 325 323 328 333 333 332 333 335 335 332 333 333 333 336 337 338 337 338 336 338
325 328 330 331 333 334 335 336 337 337 338 338 340 340 340 339 338 337 338 338 337 337 339 338 339 338 338 339 340 341 341 340 338 338 339 338 337 336 336 336 335 333 339 341 342 341 339 340 340 339 340 336 331 333 333 333 330 329 335 336 336 335 335 335 334 329 324 321 325 332 334 335 336 336 335 335 334 334 337 337 336 336 336 334 338
323 324 326 328 331 333 334 336 335 336 339 338 337 338 338 338 337 337 337 338 339 337 336 337 335 336 337 339 339 338 338 340 339 338 338 337 337 335 335 335 334 335 335 340 341 339 337 338 339 339 340 336 337 336 333 330 332 333 332 333 334 333 332 334 335 334 325 322 323 326 327 333 334 335 337 338 336 337 337 336 336 335 335 336 337
323 324 324 326 327 328 330 332 332 334 337 337 337 337 338 337 337 337 338 337 337 336 336 335 335 336 336 337 339 337 336 338 338 336 337 336 335 335 335 335 334 334 337 336 336 335 335 337 338 337 340 339 339 335 332 334 334 337 334 334 332 331 331 331 332 331 331 329 324 323 327 326 325 330 336 336 336 336 335 337 336 334 334 335 336
322 323 323 323 324 325 326 326 327 330 333 336 337 336 337 337 335 335 335 335 334 333 333 334 334 334 336 336 338 337 337 337 337 337 337 335 334 334 336 336 335 336 335 335 335 337 336 337 339 339 337 338 334 332 332 334 336 332 333 333 332 332 331 329 330 331 330 328 325 325 327 326 325 326 331 335 334 333 333 336 336 333 335 336 335
Wind_Speed
14 15 15 16 13 14 15 13 13 14 15 14 14 15 16 15 16 17 17 17 17 17 17 17 16 15 15 14 14 14 13 13 14 14 13 13 14 13 13 13 13 12 13 14 14 15 15 15 19 16 15 16 15 15 16 17 16 16 16 15 16 15 14 13 14 16 13 14 13 14 14 13 14 15 15 15 14 13 11 10 9 12 11 14 16
17 15 13 15 13 14 17 16 16 15 15 15 15 16 16 16 16 17 16 17 17 17 17 16 15 15 15 14 13 14 14 13 12 13 13 14 13 14 14 13 13 13 14 15 16 16 16 16 19 19 16 15 16 16 17 17 17 16 16 16 16 15 14 15 15 15 15 15 16 16 15 15 15 14 15 15 15 15 14 15 13 11 10 14 15
15 15 14 16 14 14 17 18 18 18 16 16 16 15 17 18 17 16 17 17 17 16 16 15 15 16 16 14 14 13 13 12 12 13 14 14 14 15 14 13 13 13 15 16 16 16 16 16 20 18 17 17 16 16 17 17 16 16 16 14 16 16 14 14 13 14 15 15 15 16 17 16 15 14 15 16 16 16 16 15 15 14 11 14 14
16 14 14 15 14 13 15 18 18 20 19 17 15 14 14 15 16 16 16 14 14 14 15 15 14 14 12 14 12 13 13 12 11 14 15 14 14 15 14 14 14 16 16 17 16 16 16 17 18 20 20 16 16 16 17 18 18 17 15 16 16 15 14 13 12 12 12 13 12 10 9 11 12 15 15 15 16 16 16 17 17 16 14 13 15
15 14 14 14 14 13 14 16 17 20 19 19 18 18 16 16 16 16 15 13 13 14 15 15 15 14 14 14 14 13 13 10 9 12 12 12 13 15 15 15 15 17 17 16 16 16 16 17 18 18 18 18 16 17 17 16 17 16 16 16 16 16 15 14 12 9 8 8 10 6 8 10 11 14 13 13 14 15 16 16 16 15 15 15 14
14 14 13 13 14 14 13 15 17 19 19 20 20 19 18 18 17 17 16 16 15 15 15 15 15 14 15 15 14 13 11 10 9 12 10 13 13 14 15 16 15 16 17 17 17 16 16 17 17 17 17 17 17 16 16 16 15 15 14 15 14 14 13 12 9 7 5 5 10 4 6 9 9 9 12 13 14 14 14 14 13 13 14 16 16
13 12 13 13 13 13 13 14 17 17 19 20 20 19 18 18 18 17 16 16 15 15 15 15 14 14 14 15 14 13 11 10 9 10 10 13 13 12 14 16 15 16 17 17 17 16 16 16 17 17 17 17 16 16 16 15 14 15 15 15 14 13 11 9 6 3 5 9 5 5 6 8 9 8 12 11 12 13 14 14 14 14 14 13 14
12 11 13 13 11 14 13 14 16 16 17 17 18 18 18 18 17 17 17 16 15 15 15 15 14 14 15 15 14 13 11 10 9 8 9 13 13 12 13 15 16 15 15 16 15 15 13 15 15 16 16 16 16 16 15 15 14 14 14 14 13 12 10 8 5 2 7 4 4 6 7 9 9 9 12 13 13 13 14 14 13 13 13 12 13
12 13 12 12 12 18 13 14 15 17 16 16 16 16 16 16 16 16 16 15 15 15 15 15 15 14 14 13 14 12 12 10 9 6 7 10 12 12 12 13 14 14 13 12 12 13 13 14 14 13 14 15 15 15 15 13 13 12 12 12 12 11 8 6 4 7 4 6 7 6 9 10 11 10 12 14 13 13 15 15 15 14 14 14 15
13 12 12 11 14 16 14 14 15 17 17 16 15 16 16 15 15 16 16 15 15 14 15 15 14 14 13 14 12 13 11 11 8 7 7 9 9 11 11 12 14 14 14 14 13 12 12 12 12 12 13 14 15 15 15 14 13 12 12 11 10 9 7 2 2 3 8 8 10 10 10 10 11 11 12 12 14 16 17 18 16 15 14 16 17
13 11 11 11 17 14 14 14 15 17 17 16 16 16 16 15 16 15 15 15 15 14 14 15 15 14 13 12 13 12 11 10 9 10 10 10 10 10 11 12 10 11 13 12 11 10 10 10 10 10 11 12 14 14 14 14 12 12 11 11 9 6 2 4 8 8 9 10 10 9 13 12 11 11 14 15 15 16 15 15 15 14 15 15 15
12 11 10 11 17 12 13 14 16 15 16 16 16 16 15 15 15 14 15 14 14 14 13 13 13 14 14 13 13 12 11 10 10 10 10 11 11 12 13 11 10 11 12 11 9 9 9 9 10 9 9 11 13 14 14 14 13 12 11 10 7 4 4 8 1 6 8 11 10 9 11 11 12 12 15 15 15 15 15 15 15 15 15 14 13
12 11 11 14 14 13 13 14 15 15 16 17 17 17 16 16 16 15 14 12 12 12 12 13 12 12 12 12 14 13 11 10 10 11 10 10 11 11 11 11 11 11 11 10 9 8 8 9 10 10 10 12 14 14 14 13 13 12 11 9 6 2 3 9 7 8 9 10 9 10 12 11 11 13 14 15 15 15 15 15 15 14 15 15 14
11 11 12 13 12 16 13 13 14 14 15 16 16 15 16 15 15 15 13 11 12 12 11 10 10 10 11 11 11 10 10 10 10 10 10 10 10 10 10 11 11 11 10 9 8 8 8 9 10 11 12 13 13 13 13 13 13 12 11 8 5 3 3 7 9 8 9 10 11 11 10 10 11 11 12 13 13 14 14 14 14 14 14 14 14
10 11 12 13 14 14 16 12 13 14 14 13 13 14 14 14 13 12 12 11 11 12 11 10 9 9 10 12 12 11 11 11 12 11 10 10 11 10 9 11 11 10 9 8 7 7 7 8 9 11 13 12 12 12 13 13 12 11 10 8 5 4 8 6 7 8 9 9 10 11 11 9 9 10 11 11 11 11 12 12 13 13 13 14 14
11 11 13 13 14 14 13 14 13 13 12 12 13 13 13 12 12 12 11 11 11 11 12 11 9 9 11 10 10 11 11 11 11 10 10 10 9 10 10 10 10 10 8 7 7 6 7 8 10 11 12 13 13 12 12 12 11 11 9 6 2 2 7 4 6 8 8 9 9 10 10 10 10 10 10 10 10 10 10 11 11 11 11 12 12
10 11 12 13 15 13 13 13 14 13 11 11 12 12 12 11 11 11 11 11 11 11 11 11 10 10 11 10 9 9 9 11 11 10 9 8 8 9 9 10 10 9 8 7 6 5 6 8 10 11 12 12 12 12 12 12 11 9 9 6 4 4 7 1 6 6 7 8 8 8 8 9 9 10 11 11 10 10 9 10 10 10 11 12 12
10 11 11 12 13 13 12 12 13 13 13 11 11 11 11 12 11 12 11 11 11 10 11 11 10 10 10 10 9 9 11 11 12 11 10 9 9 9 10 10 11 10 8 7 5 5 7 9 10 11 11 12 13 13 12 11 10 9 8 7 5 2 2 4 7 7 8 7 8 8 8 10 8 10 11 10 10 10 10 10 10 10 10 11 11
9 10 10 11 12 11 12 11 12 12 12 10 11 12 11 11 11 11 11 10 10 10 10 10 11 9 9 9 10 11 12 12 12 11 10 9 9 9 9 10 10 9 8 7 6 6 7 9 11 11 11 12 12 13 12 11 11 9 9 7 5 2 6 3 6 7 7 6 7 8 8 8 10 10 11 11 11 11 11 10 10 10 10 11 11
8 9 9 9 10 11 9 11 11 10 11 9 11 13 12 11 10 11 11 10 11 10 10 10 11 10 10 11 12 13 13 12 13 10 10 9 9 8 10 10 10 9 7 6 7 6 8 10 11 11 12 12 12 12 12 11 10 10 8 7 7 10 4 5 7 7 7 8 8 8 10 9 10 10 10 10 9 9 9 10 9 9 9 9 10
6 8 8 9 10 9 10 8 8 11 10 10 10 11 13 15 13 13 13 12 11 11 11 11 12 11 11 9 10 10 10 9 10 9 11 8 8 10 10 10 10 9 8 6 6 7 9 11 12 12 13 13 12 12 11 10 10 9 9 8 11 4 5 4 5 6 7 7 8 9 11 10 9 9 10 9 10 10 9 9 9 9 9 9 8
8 8 8 9 8 9 8 10 8 10 8 9 8 8 10 12 12 13 13 13 13 13 12 12 12 10 11 9 8 7 7 8 8 11 7 8 8 9 10 10 10 9 6 6 7 8 10 11 13 13 13 13 13 8 8 9 9 8 8 9 8 5 3 3 4 5 6 7 8 9 11 11 9 10 9 9 9 9 10 9 10 10 9 9 9
8 8 8 8 8 8 8 8 9 9 10 9 8 8 10 9 10 10 9 12 12 12 11 11 10 10 10 8 6 5 6 5 6 7 7 7 9 10 10 10 10 8 6 7 7 9 10 12 13 13 13 13 9 6 6 6 6 7 8 8 3 3 4 4 4 4 6 8 8 12 11 9 9 10 10 9 10 9 9 9 10 10 10 10 9
8 8 8 7 7 7 8 6 8 9 7 6 7 8 9 8 8 9 8 9 10 10 10 9 8 8 8 7 5 6 6 5 7 10 11 8 8 10 11 10 10 8 7 7 9 9 11 11 12 13 11 9 5 5 6 6 6 5 2 3 4 4 3 3 5 5 6 8 8 10 10 9 9 9 9 9 10 10 9 10 9 9 9 9 9
7 7 7 7 8 7 7 6 7 7 7 6 7 7 8 7 7 8 8 8 8 8 7 8 7 8 8 6 6 6 6 6 7 8 7 7 8 8 8 8 8 8 10 8 8 8 9 9 8 10 7 5 5 4 4 5 4 3 3 3 3 3 4 4 4 5 6 7 8 6 9 9 8 9 8 8 8 9 10 9 9 9 9 9 8
5 6 7 9 8 8 7 7 7 8 8 7 7 7 7 7 8 7 7 6 7 7 7 7 7 8 8 7 7 7 6 6 7 7 7 7 7 8 8 7 8 9 9 8 7 8 7 8 9 8 5 4 4 4 4 4 5 4 4 4 4 3 3 4 5 5 6 6 7 7 8 8 5 5 8 8 9 8 9 8 8 8 8 8 7
5 6 6 6 8 8 8 8 8 8 8 7 6 7 7 6 6 7 7 6 6 7 7 7 7 8 8 8 7 7 7 6 7 7 6 7 7 6 6 6 7 8 8 7 7 7 7 7 7 6 5 5 5 5 5 4 4 5 5 4 4 4 3 4 4 5 5 5 8 8 7 6 7 7 7 6 6 8 8 8 7 8 8 7 8
4 6 6 7 7 9 10 10 8 8 8 7 6 7 6 6 6 6 6 6 6 6 7 7 7 7 8 7 7 7 7 7 7 7 7 6 7 6 5 7 7 7 8 7 7 8 7 6 6 6 6 6 6 5 5 5 4 3 4 4 4 4 3 4 4 4 5 6 6 6 3 3 6 6 6 6 7 7 7 8 8 8 8 8 8
6 6 6 6 8 8 10 10 9 9 7 7 7 5 6 6 6 6 6 6 6 6 6 7 7 6 7 7 7 7 7 6 7 6 6 7 6 7 7 6 7 7 8 8 9 9 7 7 7 7 6 6 6 5 5 5 4 4 4 5 4 4 4 4 3 3 4 4 5 6 3 5 4 5 6 5 6 6 5 6 7 5 7 7 6
6 5 5 6 7 8 8 9 8 7 7 7 6 6 5 6 6 6 5 6 6 5 6 6 6 7 6 7 8 7 5 5 6 6 6 7 6 6 7 6 6 6 7 8 8 8 7 7 7 7 7 6 6 5 4 4 4 4 4 5 4 4 4 4 3 4 4 3 5 6 6 7 6 4 4 5 5 5 6 7 7 7 7 6 6
6 6 5 5 6 7 7 7 8 7 6 6 5 4 4 5 5 5 5 5 5 5 5 5 6 6 6 6 6 5 4 5 5 5 6 6 6 6 6 7 7 7 7 8 8 8 7 7 7 7 6 6 5 6 5 4 4 4 3 5 3 3 3 3 2 2 4 4 5 5 7 6 4 3 4 3 5 6 6 6 6 6 6 6 5
4 4 5 4 3 4 3 4 4 4 4 5 3 3 3 4 4 4 4 4 4 5 5 5 5 6 6 6 5 5 5 4 4 5 5 5 6 6 7 7 7 7 7 7 8 8 7 7 7 6 5 5 5 5 4 4 4 3 3 4 3 3 3 3 4 2 2 4 6 5 5 7 5 4 5 6 4 3 5 6 6 7 7 6 6
2 2 3 2 2 1 2 2 2 1 4 3 2 2 3 3 4 4 4 3 4 4 4 4 5 6 6 6 6 6 5 5 5 6 5 5 5 6 7 7 7 7 7 8 9 8 7 7 7 6 6 6 5 5 5 4 3 3 4 4 3 3 3 3 3 4 3 3 3 4 5 6 7 7 5 5 5 3 4 4 6 6 6 6 5
1 1 1 2 5 6 4 3 3 2 5 7 7 4 2 3 3 3 3 4 4 4 4 4 4 5 6 6 7 7 7 6 6 6 6 5 5 6 7 7 7 8 8 8 8 8 7 7 7 7 6 6 6 6 5 5 4 4 4 3 3 3 3 3 3 3 3 3 3 2 3 5 6 6 7 7 5 5 4 5 5 5 5 4 5
2 7 10 7 5 5 5 3 3 4 5 6 7 5 4 5 3 4 4 4 4 5 4 4 5 5 6 6 7 5 7 8 7 5 6 6 6 6 7 7 7 8 8 8 8 8 7 8 7 7 6 6 6 6 5 4 4 4 3 3 2 3 4 3 3 3 3 3 3 3 1 1 2 3 5 6 7 5 3 6 5 5 5 5 4
5 10 6 3 5 6 7 8 8 7 6 5 5 5 5 5 7 5 5 5 5 5 5 5 5 5 6 6 8 8 8 10 7 7 8 6 7 7 7 6 7 7 8 8 9 8 8 8 8 8 7 7 7 6 5 4 4 4 3 3 3 4 4 4 4 4 3 3 3 3 2 2 1 2 1 5 6 7 5 6 5 5 4 4 5
8 9 8 9 9 9 8 9 7 6 6 6 7 6 5 6 5 6 6 6 6 6 6 5 5 6 6 7 7 8 8 7 9 9 7 7 7 7 6 7 7 7 7 8 9 9 8 8 8 8 8 7 7 7 5 4 4 4 4 4 4 4 3 3 4 4 3 4 3 3 3 2 3 2 3 3 5 7 8 6 6 4 3 2 3
7 8 9 8 9 10 10 7 10 11 10 8 8 8 7 7 7 6 7 6 6 6 5 6 6 6 6 7 8 8 9 7 8 10 8 8 8 7 7 7 7 7 8 8 9 9 8 7 7 8 7 8 7 7 7 6 5 5 5 5 5 4 3 3 3 4 4 3 3 2 2 3 2 3 3 4 5 6 6 6 6 5 4 2 3
6 7 8 8 8 9 9 11 10 10 10 12 11 10 9 7 7 8 8 8 6 6 6 6 7 7 7 8 8 8 9 9 5 5 9 8 8 7 7 7 7 7 8 8 9 9 9 9 9 8 8 8 7 7 6 5 5 5 4 5 4 4 3 3 3 3 3 3 2 2 2 3 3 4 4 4 4 4 5 5 6 6 6 5 2
7 8 10 11 10 9 7 7 8 10 9 8 9 9 8 9 9 9 9 9 7 6 6 6 6 7 7 7 8 8 8 6 3 2 8 8 6 8 8 8 8 8 8 9 9 9 10 10 11 11 9 8 6 6 6 6 5 5 4 4 4 4 4 4 4 4 3 3 4 3 3 3 3 4 4 4 4 4 4 4 3 3 5 6 6
7 8 9 9 10 11 10 10 8 9 8 9 9 9 9 8 8 9 9 8 8 7 7 7 7 7 8 8 8 7 7 5 1 5 7 7 7 7 6 7 8 8 9 9 9 10 11 10 9 9 10 9 7 6 6 6 6 5 5 5 5 5 4 5 5 5 4 4 3 4 3 3 3 5 5 4 4 4 4 4 4 3 3 6 4
4 6 6 4 4 6 7 4 2 3 5 6 7 9 9 8 8 9 9 8 7 7 7 8 8 8 9 8 6 5 6 6 6 8 8 8 7 6 6 5 8 9 8 8 8 8 10 10 9 9 9 9 8 8 7 7 7 7 7 6 4 4 5 6 7 6 5 4 4 4 4 3 4 5 4 5 5 4 3 3 3 2 2 5 7
2 1 2 2 1 3 3 1 2 4 5 6 6 6 7 7 7 7 8 6 5 5 6 6 6 8 7 7 7 8 10 9 8 8 7 9 7 6 6 7 10 9 7 7 9 9 8 10 11 10 9 8 7 8 9 9 7 8 7 7 6 6 5 6 6 7 7 6 5 5 4 5 5 5 5 5 5 5 4 2 1 2 2 3 3
7 9 8 7 3 4 4 2 5 4 4 4 5 5 4 4 5 6 7 7 6 5 5 6 8 8 8 7 7 8 9 10 9 9 9 10 10 8 6 7 9 8 8 8 8 8 8 9 10 9 9 9 8 8 8 8 3 4 7 8 6 6 6 8 7 7 6 6 6 6 5 6 6 6 6 6 5 5 4 3 2 2 2 2 1
11 10 8 7 5 7 6 4 2 3 3 3 5 5 4 5 4 4 4 5 6 6 6 7 7 6 6 8 9 9 10 10 10 10 9 8 7 9 8 8 10 10 8 9 8 8 9 8 9 8 9 8 7 7 8 8 8 6 3 4 4 5 6 2 8 5 7 6 7 7 7 7 8 7 7 7 6 5 4 3 3 2 3 2 3
10 9 8 8 7 6 7 6 4 3 3 3 3 3 3 3 4 4 5 5 6 6 8 8 6 7 7 6 8 9 10 11 10 10 9 9 11 11 11 9 12 6 10 8 8 8 9 10 10 8 9 7 5 7 7 8 8 8 9 4 3 1 3 4 5 6 6 5 5 7 6 8 8 8 8 7 8 6 5 5 5 4 2 3 3
11 9 8 9 8 7 6 7 6 5 4 3 2 2 3 4 5 5 6 6 7 6 6 5 6 4 2 5 8 8 10 11 11 11 9 11 11 8 10 9 9 8 7 7 7 8 9 10 9 9 8 6 2 6 8 8 6 7 9 5 4 5 4 4 5 4 6 5 5 6 7 8 9 8 8 7 8 6 5 4 5 4 3 3 3
11 11 10 10 10 10 9 8 6 6 5 5 5 3 4 3 4 5 4 6 6 7 5 4 4 4 5 7 7 8 9 10 10 10 8 9 9 8 8 7 5 6 8 8 7 8 9 9 9 9 8 7 7 8 8 7 9 10 9 9 6 5 4 5 4 4 4 6 7 6 7 8 8 8 8 7 7 6 5 5 5 5 4 4 4
12 11 10 10 10 10 10 9 8 7 5 4 4 5 4 6 6 5 5 4 5 5 4 4 5 6 7 7 7 8 7 7 6 7 9 10 8 9 10 10 7 8 10 7 7 7 10 9 8 8 9 9 10 7 5 7 10 8 10 9 8 8 6 6 5 4 5 6 7 9 9 8 7 7 7 6 6 5 5 5 5 5 4 3 4
11 12 11 10 10 10 11 10 10 8 8 7 4 3 4 5 6 6 6 6 5 5 5 6 6 6 7 7 5 5 6 5 6 8 9 8 7 6 5 7 8 9 6 6 9 10 10 10 9 10 10 10 7 9 10 8 8 7 6 9 8 8 7 7 6 6 6 7 5 8 9 10 10 8 8 7 7 7 7 5 6 6 5 4 4
12 12 11 11 9 10 11 12 13 11 10 9 9 8 7 6 7 8 8 7 6 5 6 7 6 6 7 7 6 5 5 6 5 6 7 7 7 7 6 6 5 8 7 9 10 10 10 11 10 11 11 10 7 9 11 12 8 7 11 9 9 8 8 8 7 7 6 6 6 6 8 10 8 8 8 8 8 8 7 6 6 6 5 6 5
Wind_Direction
165 153 147 138 144 141 138 131 124 121 119 123 120 122 122 121 122 125 127 129 132 133 134 135 132 131 133 135 131 127 126 122 121 121 120 122 121 119 118 112 107 110 110 110 111 112 110 109 105 102 106 104 107 102 100 99 98 97 92 94 95 97 96 97 98 98 103 95 88 88 87 93 88 84 83 79 76 74 73 80 78 71 72 70 67
163 154 144 145 140 138 138 135 132 127 123 124 123 124 125 125 127 130 131 134 135 135 134 132 130 131 133 134 128 122 124 128 130 123 118 119 120 118 116 114 110 110 114 116 113 111 111 109 103 107 105 106 104 105 102 102 101 99 100 98 96 97 97 101 97 99 102 101 97 95 93 87 83 84 84 79 75 70 63 54 56 74 72 73 70
155 151 147 141 142 138 136 136 137 133 130 129 128 125 127 131 132 132 134 136 136 135 133 131 129 132 133 131 125 130 133 136 132 119 116 117 119 117 110 104 107 113 115 113 113 112 110 108 110 111 108 105 107 109 106 105 106 102 100 97 97 97 96 94 93 92 93 97 100 99 96 88 82 84 83 81 79 76 69 67 69 67 75 76 77
154 152 149 139 142 140 135 137 136 136 135 132 127 127 125 127 129 132 135 133 132 129 132 131 130 134 131 125 127 126 128 133 131 125 126 129 122 112 110 112 117 115 114 113 113 113 109 109 108 111 113 113 111 107 106 107 105 105 102 102 102 100 99 95 93 94 103 112 123 125 104 96 87 75 78 81 81 79 80 80 78 77 82 80 86
155 146 144 149 149 143 139 137 135 136 133 133 133 134 132 133 135 134 134 130 128 129 131 132 134 133 128 129 128 127 132 135 126 117 122 118 110 114 114 113 115 115 114 113 110 110 109 108 106 107 109 109 109 107 104 104 104 103 104 103 103 103 103 99 97 104 114 144 155 162 97 95 84 78 81 84 84 82 81 82 81 81 82 77 69
154 140 145 152 153 146 142 137 135 135 134 135 136 137 138 137 137 135 133 131 130 131 132 135 135 132 132 133 129 129 131 131 121 119 121 113 113 112 113 115 115 115 112 111 108 106 107 106 106 105 105 106 106 105 104 103 103 103 102 100 96 96 96 98 101 108 135 181 209 98 99 93 89 87 86 90 89 85 84 83 86 89 92 94 84
147 147 149 153 155 149 144 138 135 133 134 134 135 137 137 136 134 134 132 132 131 132 133 134 134 133 134 131 130 132 135 132 116 121 122 112 112 113 113 114 115 114 113 111 109 107 108 108 107 106 105 107 108 106 105 104 104 106 107 104 98 94 92 90 95 143 213 222 86 87 77 81 85 88 89 86 87 86 84 86 82 79 78 75 74
147 153 153 149 157 144 144 139 135 133 132 132 134 135 134 134 134 134 133 130 131 133 135 133 132 135 135 133 132 133 134 128 114 113 123 121 122 123 117 115 113 111 111 109 106 101 102 105 104 107 109 107 108 107 106 105 104 104 103 102 101 98 96 100 113 116 280 74 73 78 86 83 89 90 91 97 99 102 98 91 87 86 86 92 102
149 155 155 144 145 144 142 137 135 134 132 133 133 131 130 132 133 132 131 130 133 136 136 136 136 137 137 135 133 132 134 129 115 108 115 123 128 122 121 114 112 112 108 108 99 100 102 101 104 108 112 110 110 109 108 107 103 98 96 98 99 98 99 101 125 211 126 90 93 94 94 98 91 92 87 87 89 97 105 108 102 91 77 71 72
151 151 149 149 144 144 142 138 139 136 137 136 133 130 131 131 132 133 133 134 133 135 136 134 134 136 139 136 134 135 135 130 110 99 97 88 95 113 110 111 114 115 117 109 97 99 100 101 104 108 110 112 116 115 113 110 105 101 97 96 94 92 93 150 182 61 79 75 75 70 56 66 91 83 90 93 85 76 68 60 58 67 79 81 81
148 147 154 147 144 141 138 138 138 140 139 136 133 132 133 135 137 136 137 138 137 138 140 137 136 136 135 132 134 135 136 122 109 99 92 93 92 100 109 107 107 115 113 107 98 96 92 89 93 102 114 121 119 116 113 111 107 104 101 97 97 105 153 169 242 78 85 94 89 94 85 78 88 91 93 91 85 82 81 81 83 85 84 81 77
149 149 150 135 127 135 135 136 139 141 139 136 135 135 137 138 138 139 141 142 141 143 142 138 139 137 135 136 135 132 133 128 119 107 104 103 104 106 107 107 110 113 113 106 100 96 92 92 94 100 109 122 126 119 115 111 108 106 106 105 101 109 242 268 129 98 81 79 91 96 93 93 90 93 97 91 87 86 86 85 84 79 74 73 75
149 152 139 126 143 133 135 137 141 141 140 140 141 142 144 142 142 145 146 146 143 142 138 137 137 136 138 139 140 138 136 130 116 114 112 110 111 116 122 126 121 118 113 110 111 109 103 101 105 106 108 117 121 117 112 110 110 110 109 109 108 108 279 274 99 93 98 99 91 85 92 90 89 94 93 93 91 87 85 84 85 82 78 74 73
151 145 136 135 141 139 136 142 143 143 145 146 147 147 145 144 147 148 147 147 142 140 136 135 136 135 136 129 122 126 126 120 117 119 121 118 120 128 132 130 128 125 118 121 121 119 114 110 110 107 109 110 115 114 114 112 110 112 113 111 112 141 207 88 102 100 97 94 89 92 91 97 92 92 94 93 92 89 88 87 87 86 81 79 74
150 143 144 138 140 146 143 144 144 146 147 149 146 143 142 144 145 145 145 144 140 136 137 136 134 126 123 121 126 130 128 133 133 127 129 136 136 133 128 130 129 129 127 129 130 122 115 112 109 106 108 109 109 111 112 110 111 112 114 119 141 202 240 117 103 104 105 107 108 106 102 98 102 102 99 102 97 97 96 92 90 88 85 79 75
151 148 144 142 146 143 152 149 145 145 148 147 144 143 141 139 137 140 140 137 134 136 138 139 136 121 120 128 132 135 139 137 130 124 124 128 133 139 138 139 138 137 135 138 138 131 116 114 113 109 111 114 113 112 109 109 109 110 109 104 105 307 305 94 104 95 95 97 90 86 94 92 78 89 98 95 93 97 96 95 93 92 90 84 80
151 152 143 145 149 150 152 158 149 144 146 146 144 139 135 131 131 136 136 134 137 138 140 143 138 127 131 136 136 137 137 134 129 123 125 126 130 135 144 143 143 146 143 149 149 135 119 118 118 116 114 113 110 107 108 106 105 107 101 99 70 343 307 20 100 94 89 93 105 107 102 108 95 90 95 97 98 95 97 93 91 88 87 86 86
154 147 147 148 153 153 150 152 150 160 153 150 139 134 133 133 134 137 140 138 137 138 140 143 140 136 137 137 133 130 134 134 126 127 128 131 136 141 144 148 149 149 153 152 148 132 126 122 125 121 116 112 110 108 106 105 104 102 102 93 82 344 33 104 100 98 95 93 86 87 93 80 91 104 103 102 102 99 93 91 91 93 93 90 91
148 149 150 155 157 151 152 147 157 158 155 157 156 138 134 136 135 137 138 133 133 137 137 141 141 145 141 141 136 138 142 133 125 124 123 134 137 138 144 150 151 154 159 152 139 132 129 131 128 124 118 110 107 107 108 108 107 109 106 109 114 206 251 148 99 103 107 99 96 94 93 88 99 104 104 106 105 102 94 93 91 91 94 93 91
148 152 154 155 160 160 151 153 161 157 159 159 153 146 142 138 136 133 136 136 136 138 139 142 148 154 157 160 156 159 151 139 131 129 129 132 155 156 138 147 153 156 160 148 135 131 135 138 130 123 115 110 108 106 108 111 117 115 123 134 170 209 210 91 94 84 82 84 86 97 100 100 110 110 104 99 96 95 99 92 94 95 94 95 94
152 162 158 168 166 163 160 156 155 155 155 151 151 149 149 150 147 143 147 149 144 146 152 150 151 164 170 165 166 171 158 148 154 145 141 149 115 124 145 147 153 155 153 139 127 132 138 139 129 120 119 114 110 109 109 116 119 130 134 172 202 216 81 100 106 116 111 112 109 102 113 112 111 109 106 106 104 103 103 103 101 99 96 93 92
157 160 170 166 171 164 164 163 150 149 166 152 152 150 154 162 159 159 162 160 159 162 167 166 168 168 180 167 178 172 171 162 158 142 156 134 146 137 141 149 151 147 135 130 124 133 139 135 131 126 123 123 141 137 128 117 123 133 170 192 223 92 109 96 82 89 94 99 102 114 117 112 112 109 113 107 102 102 102 101 101 98 98 99 96
164 169 167 166 168 172 163 163 158 167 166 159 155 151 158 162 163 165 161 168 167 177 171 174 171 170 172 175 177 176 178 165 157 158 147 127 122 142 133 145 147 143 131 125 126 130 140 143 134 133 136 161 181 130 137 137 132 154 189 219 94 93 86 85 102 89 83 86 97 102 109 118 118 111 108 111 110 107 105 105 105 99 96 101 105
166 168 165 166 170 171 165 150 168 161 155 172 173 157 164 168 165 166 168 171 170 181 174 179 169 173 171 177 190 177 179 162 145 127 128 148 135 139 134 137 144 150 137 137 129 134 139 138 139 143 160 188 135 154 130 126 138 168 167 111 100 106 120 104 83 81 93 99 98 112 119 119 114 116 112 115 120 119 111 109 105 100 95 94 102
170 170 158 162 167 165 168 155 164 160 178 165 167 169 164 172 167 172 178 169 178 174 175 178 174 173 185 180 190 180 183 166 163 165 174 163 159 152 154 162 162 159 187 159 163 144 163 154 152 173 183 167 153 118 130 127 136 140 109 97 112 101 93 90 93 97 96 93 99 119 113 115 119 121 123 114 111 111 108 104 105 107 107 111 107
168 178 168 158 157 166 172 166 173 173 180 178 180 154 178 176 172 176 176 173 171 170 173 178 178 177 187 185 189 183 184 175 175 183 178 173 169 162 166 161 165 162 189 177 166 168 163 162 171 187 178 160 136 136 126 134 134 132 123 116 113 133 111 89 85 98 93 98 116 120 111 105 107 106 112 116 124 125 117 114 115 114 111 109 115
177 175 164 158 155 167 173 170 173 176 184 182 179 171 184 177 174 172 177 175 173 181 179 181 179 183 187 185 192 191 182 179 182 180 191 182 175 176 166 162 171 170 188 182 173 180 176 173 182 183 171 154 150 135 141 135 126 131 131 133 119 100 106 103 107 88 88 99 104 110 116 133 135 127 115 115 105 115 117 116 115 121 126 125 118
176 167 165 157 163 177 178 180 179 178 180 182 184 187 177 177 174 167 189 173 184 188 182 185 177 185 189 190 200 201 192 178 188 183 184 197 175 173 167 174 177 174 182 186 183 185 184 181 184 176 174 157 151 154 139 130 139 131 124 118 120 118 102 100 89 93 109 118 127 113 90 114 124 126 122 137 137 124 126 132 135 127 127 133 116
179 171 169 173 173 183 179 181 186 189 181 186 188 189 176 177 172 187 185 176 199 199 197 180 190 188 193 199 200 208 205 188 195 186 188 197 186 174 179 186 176 175 180 192 188 188 183 186 184 179 170 163 153 152 149 143 144 147 137 126 103 102 115 112 125 118 108 130 123 104 96 105 99 113 136 131 115 117 129 117 103 106 105 108 107
189 174 168 185 173 173 186 192 193 193 192 190 190 183 176 176 182 193 185 188 205 206 198 202 203 196 195 205 209 209 212 207 198 198 194 196 192 185 182 182 187 169 182 191 192 192 186 185 184 180 174 172 160 150 156 158 155 137 146 125 138 128 125 133 139 133 120 102 113 116 96 93 76 48 30 119 130 144 126 121 118 119 113 118 129
173 190 190 191 183 199 200 190 198 197 201 203 191 180 177 184 188 193 188 203 201 203 206 214 213 208 201 203 215 211 214 216 218 208 203 198 194 195 193 184 184 183 183 187 194 199 191 184 191 183 178 177 158 152 175 160 158 153 143 138 140 136 134 126 118 103 124 127 124 151 124 110 103 58 14 349 156 142 132 117 116 109 123 130 124
192 198 196 208 203 202 200 211 206 204 211 212 187 206 192 198 190 202 198 205 198 213 210 213 224 218 208 197 202 205 216 216 226 221 225 212 199 203 199 197 192 187 187 181 193 200 198 190 189 187 182 174 166 167 162 168 162 153 141 127 156 142 135 138 139 128 88 109 134 140 149 133 124 98 82 63 77 95 134 133 130 137 135 141 131
152 200 218 200 226 233 261 195 238 220 237 236 202 226 224 211 198 215 208 201 208 217 219 218 222 228 217 200 199 207 213 219 220 223 224 225 214 209 210 206 202 193 190 184 189 198 197 191 190 190 185 178 180 164 169 162 163 157 144 159 156 140 123 162 141 138 140 155 142 148 151 151 140 126 108 106 101 102 94 122 130 128 133 133 137
113 135 96 326 11 345 30 345 12 350 9 324 334 296 252 235 227 225 227 207 215 220 219 225 234 234 227 205 206 207 211 220 217 221 230 227 222 213 214 210 211 196 186 185 189 197 196 196 195 190 186 185 184 175 177 173 167 162 163 173 160 132 169 172 144 141 162 153 146 161 147 159 159 163 146 131 132 134 134 141 146 132 138 143 150
50 62 40 37 23 43 36 42 236 179 191 189 203 234 278 284 274 231 221 225 223 226 218 211 223 237 234 217 207 205 235 220 217 232 230 224 217 217 214 213 211 203 197 193 197 194 196 200 198 199 187 196 191 188 185 171 175 176 165 178 160 164 184 156 156 164 170 147 186 162 164 148 143 175 155 157 143 139 169 163 148 151 146 150 154
63 87 130 160 131 128 143 173 208 182 197 205 213 209 220 201 232 231 229 221 231 224 218 222 223 223 227 228 212 205 201 230 211 229 231 220 219 221 214 215 214 206 209 196 205 200 194 200 201 200 190 195 191 188 186 179 188 178 174 171 177 203 188 167 173 180 171 181 179 166 158 134 190 132 150 141 153 134 132 135 139 155 154 152 155
122 132 154 178 158 155 167 181 167 184 191 194 212 222 219 223 227 228 224 227 231 229 223 217 219 228 229 226 219 215 210 226 230 225 215 219 225 220 215 210 212 219 211 203 207 205 199 196 195 201 200 193 192 184 184 185 188 188 183 195 191 205 206 179 179 181 175 202 172 167 158 137 144 107 189 139 136 146 141 148 152 141 154 166 181
142 151 174 172 162 177 187 186 173 185 180 182 195 208 211 215 221 222 220 229 230 235 230 224 224 223 224 229 224 215 222 207 225 236 225 227 230 224 218 208 210 211 212 210 210 206 195 195 193 194 197 197 193 188 190 194 191 190 193 203 196 204 206 185 200 200 203 179 165 163 154 145 171 176 159 147 153 147 148 144 139 131 125 109 87
148 159 170 173 170 180 192 191 192 183 176 167 182 199 207 211 218 223 222 223 227 230 232 232 233 227 225 226 228 226 217 214 214 258 253 234 234 231 225 208 209 206 209 209 210 204 193 190 193 184 192 201 197 189 197 190 190 188 192 196 192 214 203 196 203 226 220 163 143 177 162 191 173 185 157 155 163 154 162 165 177 189 161 129 89
161 172 177 179 176 180 208 204 196 181 185 185 174 188 204 211 218 223 225 223 220 219 224 237 238 238 234 228 228 233 230 225 219 315 290 256 252 237 225 210 207 204 204 204 201 201 187 191 192 192 192 198 200 193 190 186 178 180 181 187 196 201 209 199 206 206 219 179 175 199 176 207 191 168 171 171 167 165 172 178 179 202 146 137 145
173 183 186 186 175 175 190 211 197 187 189 185 192 196 198 206 217 224 228 220 217 216 230 229 231 236 240 234 227 230 232 208 231 229 236 237 229 250 255 222 211 211 206 206 202 197 187 186 182 188 192 194 193 190 184 184 179 167 180 186 193 202 202 210 212 205 205 193 174 209 185 206 210 182 181 188 181 185 181 187 189 179 184 147 190
174 196 200 195 187 172 192 220 228 213 242 226 205 199 198 196 200 213 222 228 216 213 223 225 228 227 229 236 244 252 246 238 202 213 229 233 219 219 217 248 243 214 210 202 201 198 194 189 183 190 194 194 190 188 181 178 183 191 186 182 194 190 206 214 216 200 202 192 187 200 209 201 222 195 189 196 189 192 195 202 191 173 203 176 167
104 162 20 17 71 178 226 190 238 270 260 252 240 220 213 214 213 216 223 227 237 250 256 254 238 238 237 236 237 241 239 236 219 205 218 236 228 223 221 206 229 225 204 194 191 190 190 185 188 197 189 191 191 188 187 197 199 189 207 197 194 206 181 223 212 205 197 194 191 203 202 212 212 221 201 204 198 185 199 189 191 198 207 216 216
35 42 33 20 23 14 11 347 338 312 272 239 261 258 235 237 233 249 249 248 249 239 250 261 263 253 245 243 245 240 243 245 241 227 213 221 222 219 227 221 221 223 204 192 190 185 183 187 192 195 194 189 195 187 187 205 266 172 204 206 191 216 192 214 206 192 190 187 192 197 206 216 208 216 218 208 199 200 179 190 159 202 222 248 210
35 33 28 24 16 21 17 11 4 355 326 290 246 250 241 238 237 244 270 268 262 265 263 255 243 242 245 246 244 244 247 247 239 234 224 219 219 228 224 229 221 215 206 198 190 195 187 188 187 184 191 196 184 177 184 200 217 251 281 168 187 207 232 157 171 167 183 181 193 194 200 212 200 208 213 206 201 191 177 171 198 178 209 226 206
34 24 22 23 23 21 20 11 20 14 350 311 277 275 269 261 245 235 238 248 253 241 251 255 252 230 232 239 248 240 242 248 245 235 223 218 224 224 224 224 227 206 214 202 194 188 194 193 190 194 189 204 209 176 187 201 208 220 225 264 327 237 250 166 195 175 182 198 190 200 202 213 205 205 216 207 203 193 177 188 185 182 199 212 191
25 18 18 16 19 22 16 16 22 13 19 332 314 253 271 275 266 255 247 246 261 265 278 293 287 322 334 254 247 241 241 247 248 244 230 226 227 222 223 218 222 215 214 200 187 186 196 200 188 193 190 169 168 194 197 187 192 229 229 230 224 219 250 208 204 179 182 180 194 187 205 208 205 207 215 207 208 190 184 193 183 182 179 193 191
21 19 16 13 14 16 10 14 16 16 25 3 328 326 310 301 281 280 269 269 271 283 293 291 291 270 249 245 252 256 252 254 253 249 237 228 227 223 228 227 203 244 231 209 195 189 193 197 192 200 182 173 185 203 203 193 198 206 208 218 211 243 246 231 258 255 192 197 189 193 197 199 199 210 215 209 210 187 187 192 186 172 191 176 180
26 24 18 13 11 10 12 14 16 12 15 29 360 329 307 305 311 303 295 284 288 295 275 260 262 253 255 255 260 266 263 254 240 229 236 231 222 222 218 210 194 211 214 203 201 190 199 194 189 190 190 186 195 186 200 207 210 220 193 210 212 215 215 212 221 231 236 211 193 186 187 187 204 207 210 213 207 196 192 200 185 179 173 172 180
22 23 24 20 18 13 7 12 16 13 14 18 3 321 289 297 301 301 295 296 288 287 289 285 270 263 266 267 253 248 252 242 219 226 228 229 229 227 229 201 178 207 190 199 209 194 208 200 196 197 194 193 188 191 210 212 214 217 202 195 201 207 209 207 208 216 228 255 229 188 188 181 197 200 198 198 207 199 190 184 195 184 159 173 188
23 23 24 22 19 18 12 14 16 7 11 12 9 5 349 337 328 326 326 322 313 298 296 289 283 275 267 267 259 260 260 243 222 209 211 205 216 216 219 209 198 203 195 200 214 200 206 203 201 201 198 190 193 218 226 221 199 197 214 204 203 207 204 206 203 205 218 212 225 200 188 196 205 181 194 194 202 201 193 178 193 181 165 176 178